This is the latest recevied weather packets stored in our database for station/object IZ1GCT. If no packets are shown the sender has not sent any weather packets the latest 10 day(s).
| Time | Temp. | Humidity | Pressure | Rain* | Wind** | Luminosity | Snow |
|---|---|---|---|---|---|---|---|
| 1777799150 | 20.56° C | 43% | 1021.8 hPa | 0 mm | - | - | - |
| 1777798849 | 20° C | 45% | 1021.8 hPa | 0 mm | - | - | - |
| 1777798551 | 20° C | 43% | 1021.8 hPa | 0 mm | - | - | - |
| 1777798250 | 20° C | 45% | 1021.9 hPa | 0 mm | - | - | - |
| 1777797950 | 19.44° C | 45% | 1021.8 hPa | 0 mm | - | - | - |
| 1777797651 | 19.44° C | 46% | 1021.9 hPa | 0 mm | - | - | - |
| 1777797351 | 19.44° C | 48% | 1021.9 hPa | 0 mm | - | - | - |
| 1777797050 | 18.89° C | 50% | 1022 hPa | 0 mm | - | - | - |
| 1777796749 | 18.33° C | 50% | 1022.1 hPa | 0 mm | - | - | - |
| 1777796451 | 18.89° C | 51% | 1022.1 hPa | 0 mm | - | - | - |
| 1777796150 | 18.33° C | 51% | 1022.2 hPa | 0 mm | - | - | - |
| 1777795850 | 18.89° C | 52% | 1022.2 hPa | 0 mm | - | - | - |
| 1777795551 | 18.89° C | 50% | 1022 hPa | 0 mm | - | - | - |
| 1777795250 | 19.44° C | 49% | 1022 hPa | 0 mm | - | - | - |
| 1777794950 | 20° C | 45% | 1022.1 hPa | 0 mm | - | - | - |
| 1777794649 | 20.56° C | 46% | 1022 hPa | 0 mm | - | - | - |
| 1777794351 | 20.56° C | 49% | 1022.1 hPa | 0 mm | - | - | - |
| 1777794050 | 20.56° C | 52% | 1022 hPa | 0 mm | - | - | - |
| 1777793749 | 19.44° C | 53% | 1022.1 hPa | 0 mm | - | - | - |
| 1777793451 | 18.33° C | 55% | 1022.2 hPa | 0 mm | - | - | - |
| 1777793149 | 17.78° C | 56% | 1022.2 hPa | 0 mm | - | - | - |
| 1777792851 | 17.22° C | 63% | 1022.2 hPa | 0 mm | - | - | - |
| 1777792550 | 16.67° C | 63% | 1022.1 hPa | 0 mm | - | - | - |
| 1777792249 | 16.11° C | 64% | 1022.1 hPa | 0 mm | - | - | - |
| 1777791951 | 16.11° C | 63% | 1022.2 hPa | 0 mm | - | - | - |
* Rain latest hour (hover to see other rain measurements)
** Current wind speed in m/s (hover to see current wind gust speed)